Location: ????????
(54.9045°N, 39.1041°E)
Time: 12:26:04
(UTC+00:00)

Cosmos 192 - Pass Details

Date: 14 April 2024
Orbit: 699 x 710 km, 74.0° (Epoch: 21 May)

Event Time Altitude Azimuth Distance (km) Brightness Sun altitude
Rises 00:25:43 0° 330° (NNW) 3,097 7.8 -15.2°
Reaches altitude 10° 00:28:05 10° 326° (NW) 2,175 7.0 -15.0°
Maximum altitude 00:32:51 55° 250° (WSW) 849 4.4 -14.5°
Drops below altitude 10° 00:37:37 10° 174° (S) 2,165 6.5 -13.9°
Sets 00:39:57 0° 169° (S) 3,080 7.3 -13.7°
